^^
Daily Summary for January 31, 2026 Units:  Both    English   Metric
Daily Weekly Monthly Yearly Custom
  High: Low: Average:
Temperature: 72.0 °F /  22.2 °C 46.0 °F /  7.8 °C 55.4 °F /  13 °C
Dew Point: 52.0 °F /  11.1 °C 36.0 °F /  2.2 °C 41.9 °F /  5.5 °C
Humidity: 78% 35% 63%
Wind Speed: 1mph /  1.6km/h - 0mph /  0km/h
Wind Gust: 1mph /  1.6km/h - -
Wind- - WSW
Pressure: 30.3 in /  1026 hPa 30.1 in /  1019.2 hPa -
Precipitation: 0.000 in /  0 mm    
Historical Graphs
 
 
Tabular Data for January 31, 2026
Time Temperature Dew Point Pressure Wind Wind Speed Wind Gust Humidity Rainfall Rate (Hourly) solar
00:04 48.0 °F /  8.9 °C 41.0 °F /  5 °C 30.3in /  1026hPa Calm     78% 0.000in /  0mm 0.00 W/m2
00:09 47.0 °F /  8.3 °C 41.0 °F /  5 °C 30.3in /  1026hPa Calm     78% 0.000in /  0mm 0.00 W/m2
00:14 47.0 °F /  8.3 °C 41.0 °F /  5 °C 30.3in /  1026hPa Calm     78% 0.000in /  0mm 0.00 W/m2
00:19 47.0 °F /  8.3 °C 40.0 °F /  4.4 °C 30.3in /  1026hPa Calm     76% 0.000in /  0mm 0.00 W/m2
00:24 47.0 °F /  8.3 °C 40.0 °F /  4.4 °C 30.3in /  1026hPa Calm     76% 0.000in /  0mm 0.00 W/m2
00:29 47.0 °F /  8.3 °C 40.0 °F /  4.4 °C 30.3in /  1026hPa Calm     76% 0.000in /  0mm 0.00 W/m2
00:34 47.0 °F /  8.3 °C 40.0 °F /  4.4 °C 30.3in /  1026hPa Calm     76% 0.000in /  0mm 0.00 W/m2
00:39 47.0 °F /  8.3 °C 39.0 °F /  3.9 °C 30.3in /  1026hPa Calm     75% 0.000in /  0mm 0.00 W/m2
00:44 47.0 °F /  8.3 °C 39.0 °F /  3.9 °C 30.3in /  1026hPa Calm     75% 0.000in /  0mm 0.00 W/m2
00:49 47.0 °F /  8.3 °C 39.0 °F /  3.9 °C 30.3in /  1026hPa Calm     74% 0.000in /  0mm 0.00 W/m2
00:54 47.0 °F /  8.3 °C 39.0 °F /  3.9 °C 30.3in /  1026hPa Calm     75% 0.000in /  0mm 0.00 W/m2
00:59 47.0 °F /  8.3 °C 39.0 °F /  3.9 °C 30.3in /  1026hPa Calm     75% 0.000in /  0mm 0.00 W/m2
01:04 47.0 °F /  8.3 °C 39.0 °F /  3.9 °C 30.3in /  1026hPa Calm     74% 0.000in /  0mm 0.00 W/m2
01:08 47.0 °F /  8.3 °C 38.0 °F /  3.3 °C 30.3in /  1026hPa Calm     72% 0.000in /  0mm 0.00 W/m2
01:14 47.0 °F /  8.3 °C 38.0 °F /  3.3 °C 30.3in /  1026hPa Calm     71% 0.000in /  0mm 0.00 W/m2
01:18 47.0 °F /  8.3 °C 38.0 °F /  3.3 °C 30.3in /  1026hPa Calm     70% 0.000in /  0mm 0.00 W/m2
01:24 48.0 °F /  8.9 °C 38.0 °F /  3.3 °C 30.3in /  1026hPa Calm     69% 0.000in /  0mm 0.00 W/m2
01:29 48.0 °F /  8.9 °C 38.0 °F /  3.3 °C 30.3in /  1026hPa Calm     69% 0.000in /  0mm 0.00 W/m2
01:34 48.0 °F /  8.9 °C 38.0 °F /  3.3 °C 30.3in /  1026hPa Calm     68% 0.000in /  0mm 0.00 W/m2
01:39 48.0 °F /  8.9 °C 38.0 °F /  3.3 °C 30.3in /  1026hPa Calm     68% 0.000in /  0mm 0.00 W/m2
01:44 48.0 °F /  8.9 °C 38.0 °F /  3.3 °C 30.3in /  1026hPa Calm     68% 0.000in /  0mm 0.00 W/m2
01:49 49.0 °F /  9.4 °C 38.0 °F /  3.3 °C 30.3in /  1026hPa Calm     67% 0.000in /  0mm 0.00 W/m2
01:54 49.0 °F /  9.4 °C 38.0 °F /  3.3 °C 30.3in /  1026hPa Calm     67% 0.000in /  0mm 0.00 W/m2
01:59 48.0 °F /  8.9 °C 38.0 °F /  3.3 °C 30.3in /  1026hPa Calm     67% 0.000in /  0mm 0.00 W/m2
02:03 48.0 °F /  8.9 °C 38.0 °F /  3.3 °C 30.3in /  1026hPa Calm     67% 0.000in /  0mm 0.00 W/m2
02:09 48.0 °F /  8.9 °C 38.0 °F /  3.3 °C 30.3in /  1026hPa Calm     67% 0.000in /  0mm 0.00 W/m2
02:14 48.0 °F /  8.9 °C 38.0 °F /  3.3 °C 30.3in /  1026hPa Calm     67% 0.000in /  0mm 0.00 W/m2
02:19 48.0 °F /  8.9 °C 38.0 °F /  3.3 °C 30.3in /  1026hPa Calm     67% 0.000in /  0mm 0.00 W/m2
02:24 48.0 °F /  8.9 °C 38.0 °F /  3.3 °C 30.3in /  1026hPa Calm     68% 0.000in /  0mm 0.00 W/m2
02:29 48.0 °F /  8.9 °C 38.0 °F /  3.3 °C 30.3in /  1026hPa Calm     68% 0.000in /  0mm 0.00 W/m2
02:34 48.0 °F /  8.9 °C 38.0 °F /  3.3 °C 30.3in /  1026hPa Calm     69% 0.000in /  0mm 0.00 W/m2
02:39 48.0 °F /  8.9 °C 38.0 °F /  3.3 °C 30.3in /  1026hPa Calm     68% 0.000in /  0mm 0.00 W/m2
02:44 48.0 °F /  8.9 °C 38.0 °F /  3.3 °C 30.3in /  1026hPa Calm     68% 0.000in /  0mm 0.00 W/m2
02:49 48.0 °F /  8.9 °C 38.0 °F /  3.3 °C 30.3in /  1026hPa Calm     69% 0.000in /  0mm 0.00 W/m2
02:54 48.0 °F /  8.9 °C 38.0 °F /  3.3 °C 30.3in /  1026hPa Calm     69% 0.000in /  0mm 0.00 W/m2
02:59 48.0 °F /  8.9 °C 38.0 °F /  3.3 °C 30.3in /  1026hPa Calm     69% 0.000in /  0mm 0.00 W/m2
03:04 48.0 °F /  8.9 °C 38.0 °F /  3.3 °C 30.3in /  1026hPa Calm     68% 0.000in /  0mm 0.00 W/m2
03:09 48.0 °F /  8.9 °C 38.0 °F /  3.3 °C 30.3in /  1026hPa Calm     68% 0.000in /  0mm 0.00 W/m2
03:14 48.0 °F /  8.9 °C 38.0 °F /  3.3 °C 30.3in /  1026hPa Calm     68% 0.000in /  0mm 0.00 W/m2
03:18 48.0 °F /  8.9 °C 38.0 °F /  3.3 °C 30.3in /  1026hPa Calm     69% 0.000in /  0mm 0.00 W/m2
03:24 48.0 °F /  8.9 °C 38.0 °F /  3.3 °C 30.3in /  1026hPa Calm     69% 0.000in /  0mm 0.00 W/m2
03:29 48.0 °F /  8.9 °C 38.0 °F /  3.3 °C 30.3in /  1026hPa Calm     71% 0.000in /  0mm 0.00 W/m2
03:34 47.0 °F /  8.3 °C 38.0 °F /  3.3 °C 30.3in /  1026hPa Calm     71% 0.000in /  0mm 0.00 W/m2
03:39 47.0 °F /  8.3 °C 38.0 °F /  3.3 °C 30.3in /  1026hPa Calm     71% 0.000in /  0mm 0.00 W/m2
03:44 47.0 °F /  8.3 °C 38.0 °F /  3.3 °C 30.3in /  1026hPa Calm     71% 0.000in /  0mm 0.00 W/m2
03:48 47.0 °F /  8.3 °C 38.0 °F /  3.3 °C 30.3in /  1026hPa Calm     71% 0.000in /  0mm 0.00 W/m2
03:54 47.0 °F /  8.3 °C 37.0 °F /  2.8 °C 30.3in /  1026hPa Calm     70% 0.000in /  0mm 0.00 W/m2
03:59 46.0 °F /  7.8 °C 38.0 °F /  3.3 °C 30.3in /  1026hPa Calm     71% 0.000in /  0mm 0.00 W/m2
04:04 46.0 °F /  7.8 °C 37.0 °F /  2.8 °C 30.3in /  1026hPa Calm     71% 0.000in /  0mm 0.00 W/m2
04:09 46.0 °F /  7.8 °C 37.0 °F /  2.8 °C 30.3in /  1026hPa Calm     70% 0.000in /  0mm 0.00 W/m2
04:14 46.0 °F /  7.8 °C 37.0 °F /  2.8 °C 30.3in /  1026hPa Calm     69% 0.000in /  0mm 0.00 W/m2
04:19 46.0 °F /  7.8 °C 37.0 °F /  2.8 °C 30.3in /  1026hPa Calm     69% 0.000in /  0mm 0.00 W/m2
04:24 46.0 °F /  7.8 °C 37.0 °F /  2.8 °C 30.3in /  1026hPa Calm     71% 0.000in /  0mm 0.00 W/m2
04:29 46.0 °F /  7.8 °C 37.0 °F /  2.8 °C 30.3in /  1026hPa Calm     71% 0.000in /  0mm 0.00 W/m2
04:34 46.0 °F /  7.8 °C 37.0 °F /  2.8 °C 30.3in /  1026hPa Calm     69% 0.000in /  0mm 0.00 W/m2
04:39 46.0 °F /  7.8 °C 37.0 °F /  2.8 °C 30.3in /  1026hPa Calm     70% 0.000in /  0mm 0.00 W/m2
04:44 46.0 °F /  7.8 °C 37.0 °F /  2.8 °C 30.3in /  1026hPa Calm     70% 0.000in /  0mm 0.00 W/m2
04:49 46.0 °F /  7.8 °C 37.0 °F /  2.8 °C 30.3in /  1026hPa Calm     69% 0.000in /  0mm 0.00 W/m2
04:54 46.0 °F /  7.8 °C 37.0 °F /  2.8 °C 30.3in /  1026hPa Calm     70% 0.000in /  0mm 0.00 W/m2
04:59 46.0 °F /  7.8 °C 37.0 °F /  2.8 °C 30.3in /  1026hPa Calm     70% 0.000in /  0mm 0.00 W/m2
05:04 46.0 °F /  7.8 °C 37.0 °F /  2.8 °C 30.3in /  1026hPa Calm     70% 0.000in /  0mm 0.00 W/m2
05:09 46.0 °F /  7.8 °C 36.0 °F /  2.2 °C 30.3in /  1026hPa Calm     68% 0.000in /  0mm 0.00 W/m2
05:14 46.0 °F /  7.8 °C 37.0 °F /  2.8 °C 30.3in /  1026hPa Calm     69% 0.000in /  0mm 0.00 W/m2
05:19 46.0 °F /  7.8 °C 37.0 °F /  2.8 °C 30.3in /  1026hPa Calm     71% 0.000in /  0mm 0.00 W/m2
05:24 46.0 °F /  7.8 °C 37.0 °F /  2.8 °C 30.3in /  1026hPa Calm     71% 0.000in /  0mm 0.00 W/m2
05:29 46.0 °F /  7.8 °C 37.0 °F /  2.8 °C 30.3in /  1026hPa Calm     69% 0.000in /  0mm 0.00 W/m2
05:34 46.0 °F /  7.8 °C 37.0 °F /  2.8 °C 30.3in /  1026hPa Calm     70% 0.000in /  0mm 0.00 W/m2
05:39 46.0 °F /  7.8 °C 37.0 °F /  2.8 °C 30.3in /  1026hPa Calm     70% 0.000in /  0mm 0.00 W/m2
05:44 46.0 °F /  7.8 °C 37.0 °F /  2.8 °C 30.3in /  1026hPa Calm     70% 0.000in /  0mm 0.00 W/m2
05:49 46.0 °F /  7.8 °C 37.0 °F /  2.8 °C 30.3in /  1026hPa Calm     70% 0.000in /  0mm 0.00 W/m2
05:54 46.0 °F /  7.8 °C 36.0 °F /  2.2 °C 30.3in /  1026hPa Calm     69% 0.000in /  0mm 0.00 W/m2
05:59 46.0 °F /  7.8 °C 37.0 °F /  2.8 °C 30.3in /  1026hPa Calm     70% 0.000in /  0mm 0.00 W/m2
06:04 46.0 °F /  7.8 °C 36.0 °F /  2.2 °C 30.3in /  1026hPa Calm     69% 0.000in /  0mm 0.00 W/m2
06:09 46.0 °F /  7.8 °C 36.0 °F /  2.2 °C 30.3in /  1026hPa Calm     69% 0.000in /  0mm 0.00 W/m2
06:14 46.0 °F /  7.8 °C 37.0 °F /  2.8 °C 30.3in /  1026hPa Calm     70% 0.000in /  0mm 0.00 W/m2
06:19 46.0 °F /  7.8 °C 37.0 °F /  2.8 °C 30.3in /  1026hPa Calm     70% 0.000in /  0mm 0.00 W/m2
06:24 46.0 °F /  7.8 °C 37.0 °F /  2.8 °C 30.3in /  1026hPa Calm     70% 0.000in /  0mm 0.00 W/m2
06:29 46.0 °F /  7.8 °C 38.0 °F /  3.3 °C 30.3in /  1026hPa Calm     73% 0.000in /  0mm 0.00 W/m2
06:34 46.0 °F /  7.8 °C 37.0 °F /  2.8 °C 30.3in /  1026hPa Calm     70% 0.000in /  0mm 0.00 W/m2
06:39 46.0 °F /  7.8 °C 37.0 °F /  2.8 °C 30.3in /  1026hPa Calm     69% 0.000in /  0mm 0.00 W/m2
06:44 46.0 °F /  7.8 °C 36.0 °F /  2.2 °C 30.3in /  1026hPa Calm     68% 0.000in /  0mm 0.00 W/m2
06:49 46.0 °F /  7.8 °C 37.0 °F /  2.8 °C 30.3in /  1026hPa Calm     70% 0.000in /  0mm 0.00 W/m2
06:54 46.0 °F /  7.8 °C 37.0 °F /  2.8 °C 30.3in /  1026hPa Calm     70% 0.000in /  0mm 0.00 W/m2
06:58 46.0 °F /  7.8 °C 37.0 °F /  2.8 °C 30.3in /  1026hPa Calm     69% 0.000in /  0mm 0.00 W/m2
07:04 46.0 °F /  7.8 °C 37.0 °F /  2.8 °C 30.3in /  1026hPa Calm     69% 0.000in /  0mm 0.00 W/m2
07:09 46.0 °F /  7.8 °C 37.0 °F /  2.8 °C 30.3in /  1026hPa Calm     69% 0.000in /  0mm 0.00 W/m2
07:14 46.0 °F /  7.8 °C 37.0 °F /  2.8 °C 30.3in /  1026hPa Calm     69% 0.000in /  0mm 0.00 W/m2
07:19 46.0 °F /  7.8 °C 37.0 °F /  2.8 °C 30.3in /  1026hPa Calm     69% 0.000in /  0mm 7.00 W/m2
07:24 47.0 °F /  8.3 °C 37.0 °F /  2.8 °C 30.3in /  1026hPa Calm     68% 0.000in /  0mm 11.00 W/m2
07:29 47.0 °F /  8.3 °C 36.0 °F /  2.2 °C 30.3in /  1026hPa Calm     65% 0.000in /  0mm 14.00 W/m2
07:34 47.0 °F /  8.3 °C 37.0 °F /  2.8 °C 30.3in /  1026hPa Calm     67% 0.000in /  0mm 21.00 W/m2
07:39 48.0 °F /  8.9 °C 37.0 °F /  2.8 °C 30.3in /  1026hPa Calm     67% 0.000in /  0mm 25.00 W/m2
07:44 48.0 °F /  8.9 °C 37.0 °F /  2.8 °C 30.3in /  1026hPa Calm     67% 0.000in /  0mm 30.00 W/m2
07:49 48.0 °F /  8.9 °C 37.0 °F /  2.8 °C 30.3in /  1026hPa Calm     67% 0.000in /  0mm 35.00 W/m2
07:54 48.0 °F /  8.9 °C 38.0 °F /  3.3 °C 30.3in /  1026hPa Calm     68% 0.000in /  0mm 39.00 W/m2
07:59 48.0 °F /  8.9 °C 38.0 °F /  3.3 °C 30.3in /  1026hPa Calm     68% 0.000in /  0mm 42.00 W/m2
08:04 48.0 °F /  8.9 °C 38.0 °F /  3.3 °C 30.3in /  1026hPa Calm     68% 0.000in /  0mm 46.00 W/m2
08:09 48.0 °F /  8.9 °C 38.0 °F /  3.3 °C 30.3in /  1026hPa Calm     68% 0.000in /  0mm 51.00 W/m2
08:14 48.0 °F /  8.9 °C 39.0 °F /  3.9 °C 30.3in /  1026hPa Calm     70% 0.000in /  0mm 53.00 W/m2
08:19 48.0 °F /  8.9 °C 39.0 °F /  3.9 °C 30.3in /  1026hPa Calm     70% 0.000in /  0mm 56.00 W/m2
08:24 48.0 °F /  8.9 °C 40.0 °F /  4.4 °C 30.3in /  1026hPa Calm     74% 0.000in /  0mm 62.00 W/m2
08:28 49.0 °F /  9.4 °C 40.0 °F /  4.4 °C 30.3in /  1026hPa Calm     73% 0.000in /  0mm 69.00 W/m2
08:34 49.0 °F /  9.4 °C 40.0 °F /  4.4 °C 30.3in /  1026hPa Calm     73% 0.000in /  0mm 74.00 W/m2
08:39 49.0 °F /  9.4 °C 41.0 °F /  5 °C 30.3in /  1026hPa Calm     73% 0.000in /  0mm 77.00 W/m2
08:44 49.0 °F /  9.4 °C 41.0 °F /  5 °C 30.3in /  1026hPa Calm     73% 0.000in /  0mm 84.00 W/m2
08:49 50.0 °F /  10 °C 41.0 °F /  5 °C 30.3in /  1026hPa Calm     73% 0.000in /  0mm 90.00 W/m2
08:54 50.0 °F /  10 °C 41.0 °F /  5 °C 30.3in /  1026hPa Calm     72% 0.000in /  0mm 100.00 W/m2
08:59 50.0 °F /  10 °C 41.0 °F /  5 °C 30.3in /  1026hPa Calm     71% 0.000in /  0mm 123.00 W/m2
09:03 51.0 °F /  10.6 °C 42.0 °F /  5.6 °C 30.3in /  1026hPa Calm     72% 0.000in /  0mm 134.00 W/m2
09:09 51.0 °F /  10.6 °C 43.0 °F /  6.1 °C 30.3in /  1026hPa Calm     73% 0.000in /  0mm 139.00 W/m2
09:14 52.0 °F /  11.1 °C 43.0 °F /  6.1 °C 30.3in /  1026hPa Calm     73% 0.000in /  0mm 179.00 W/m2
09:19 52.0 °F /  11.1 °C 43.0 °F /  6.1 °C 30.3in /  1026hPa Calm     73% 0.000in /  0mm 227.00 W/m2
09:24 53.0 °F /  11.7 °C 43.0 °F /  6.1 °C 30.3in /  1026hPa Calm     71% 0.000in /  0mm 243.00 W/m2
09:29 53.0 °F /  11.7 °C 41.0 °F /  5 °C 30.3in /  1026hPa Calm     65% 0.000in /  0mm 239.00 W/m2
09:34 54.0 °F /  12.2 °C 41.0 °F /  5 °C 30.3in /  1026hPa Calm     61% 0.000in /  0mm 239.00 W/m2
09:39 55.0 °F /  12.8 °C 41.0 °F /  5 °C 30.3in /  1026hPa Calm     61% 0.000in /  0mm 246.00 W/m2
09:44 56.0 °F /  13.3 °C 40.0 °F /  4.4 °C 30.3in /  1026hPa Calm     57% 0.000in /  0mm 299.00 W/m2
09:49 57.0 °F /  13.9 °C 36.0 °F /  2.2 °C 30.3in /  1026hPa Calm     47% 0.000in /  0mm 334.00 W/m2
09:54 58.0 °F /  14.4 °C 40.0 °F /  4.4 °C 30.3in /  1026hPa Calm     51% 0.000in /  0mm 315.00 W/m2
09:58 59.0 °F /  15 °C 41.0 °F /  5 °C 30.3in /  1026hPa Calm     53% 0.000in /  0mm 318.00 W/m2
10:04 59.0 °F /  15 °C 41.0 °F /  5 °C 30.3in /  1026hPa Calm     52% 0.000in /  0mm 320.00 W/m2
10:09 60.0 °F /  15.6 °C 40.0 °F /  4.4 °C 30.3in /  1026hPa Calm     49% 0.000in /  0mm 323.00 W/m2
10:14 60.0 °F /  15.6 °C 41.0 °F /  5 °C 30.3in /  1026hPa Calm     49% 0.000in /  0mm 330.00 W/m2
10:19 61.0 °F /  16.1 °C 42.0 °F /  5.6 °C 30.3in /  1026hPa Calm     49% 0.000in /  0mm 341.00 W/m2
10:24 62.0 °F /  16.7 °C 42.0 °F /  5.6 °C 30.3in /  1026hPa Calm     48% 0.000in /  0mm 359.00 W/m2
10:29 62.0 °F /  16.7 °C 42.0 °F /  5.6 °C 30.3in /  1026hPa Calm     48% 0.000in /  0mm 406.00 W/m2
10:34 63.0 °F /  17.2 °C 42.0 °F /  5.6 °C 30.3in /  1026hPa Calm     47% 0.000in /  0mm 425.00 W/m2
10:39 63.0 °F /  17.2 °C 42.0 °F /  5.6 °C 30.3in /  1026hPa Calm     47% 0.000in /  0mm 399.00 W/m2
10:44 63.0 °F /  17.2 °C 42.0 °F /  5.6 °C 30.3in /  1026hPa Calm     46% 0.000in /  0mm 404.00 W/m2
10:49 64.0 °F /  17.8 °C 42.0 °F /  5.6 °C 30.3in /  1026hPa Calm     45% 0.000in /  0mm 413.00 W/m2
10:54 64.0 °F /  17.8 °C 41.0 °F /  5 °C 30.3in /  1026hPa Calm     44% 0.000in /  0mm 441.00 W/m2
10:59 65.0 °F /  18.3 °C 40.0 °F /  4.4 °C 30.3in /  1026hPa Calm     41% 0.000in /  0mm 454.00 W/m2
11:04 65.0 °F /  18.3 °C 41.0 °F /  5 °C 30.3in /  1026hPa Calm     41% 0.000in /  0mm 519.00 W/m2
11:09 66.0 °F /  18.9 °C 41.0 °F /  5 °C 30.3in /  1026hPa Calm     41% 0.000in /  0mm 541.00 W/m2
11:14 66.0 °F /  18.9 °C 40.0 °F /  4.4 °C 30.3in /  1026hPa Calm     39% 0.000in /  0mm 559.00 W/m2
11:19 67.0 °F /  19.4 °C 41.0 °F /  5 °C 30.3in /  1026hPa Calm     39% 0.000in /  0mm 504.00 W/m2
11:24 67.0 °F /  19.4 °C 41.0 °F /  5 °C 30.3in /  1026hPa Calm     38% 0.000in /  0mm 448.00 W/m2
11:29 68.0 °F /  20 °C 42.0 °F /  5.6 °C 30.3in /  1026hPa Calm     39% 0.000in /  0mm 533.00 W/m2
11:34 68.0 °F /  20 °C 42.0 °F /  5.6 °C 30.3in /  1026hPa Calm     39% 0.000in /  0mm 543.00 W/m2
11:39 69.0 °F /  20.6 °C 43.0 °F /  6.1 °C 30.3in /  1026hPa Calm     40% 0.000in /  0mm 578.00 W/m2
11:44 69.0 °F /  20.6 °C 43.0 °F /  6.1 °C 30.3in /  1026hPa Calm     39% 0.000in /  0mm 578.00 W/m2
11:49 69.0 °F /  20.6 °C 43.0 °F /  6.1 °C 30.2in /  1022.6hPa Calm     39% 0.000in /  0mm 578.00 W/m2
11:54 69.0 °F /  20.6 °C 44.0 °F /  6.7 °C 30.2in /  1022.6hPa Calm     40% 0.000in /  0mm 603.00 W/m2
11:59 69.0 °F /  20.6 °C 44.0 °F /  6.7 °C 30.2in /  1022.6hPa Calm     40% 0.000in /  0mm 492.00 W/m2
12:04 70.0 °F /  21.1 °C 43.0 °F /  6.1 °C 30.2in /  1022.6hPa Calm     39% 0.000in /  0mm 610.00 W/m2
12:09 70.0 °F /  21.1 °C 44.0 °F /  6.7 °C 30.2in /  1022.6hPa Calm     39% 0.000in /  0mm 587.00 W/m2
12:14 70.0 °F /  21.1 °C 43.0 °F /  6.1 °C 30.2in /  1022.6hPa Calm     38% 0.000in /  0mm 529.00 W/m2
12:19 71.0 °F /  21.7 °C 43.0 °F /  6.1 °C 30.2in /  1022.6hPa Calm     37% 0.000in /  0mm 485.00 W/m2
12:24 71.0 °F /  21.7 °C 43.0 °F /  6.1 °C 30.2in /  1022.6hPa Calm     37% 0.000in /  0mm 464.00 W/m2
12:29 70.0 °F /  21.1 °C 44.0 °F /  6.7 °C 30.2in /  1022.6hPa Calm     38% 0.000in /  0mm 512.00 W/m2
12:34 71.0 °F /  21.7 °C 44.0 °F /  6.7 °C 30.2in /  1022.6hPa Calm     38% 0.000in /  0mm 512.00 W/m2
12:39 71.0 °F /  21.7 °C 43.0 °F /  6.1 °C 30.2in /  1022.6hPa Calm     37% 0.000in /  0mm 425.00 W/m2
12:44 70.0 °F /  21.1 °C 43.0 °F /  6.1 °C 30.2in /  1022.6hPa Calm     37% 0.000in /  0mm 585.00 W/m2
12:48 70.0 °F /  21.1 °C 42.0 °F /  5.6 °C 30.2in /  1022.6hPa WSW 1mph /  1.6km/h   36% 0.000in /  0mm 617.00 W/m2
12:54 71.0 °F /  21.7 °C 43.0 °F /  6.1 °C 30.2in /  1022.6hPa Calm   1mph /  1.6km/h 37% 0.000in /  0mm 598.00 W/m2
12:59 72.0 °F /  22.2 °C 44.0 °F /  6.7 °C 30.2in /  1022.6hPa Calm     37% 0.000in /  0mm 541.00 W/m2
13:04 72.0 °F /  22.2 °C 44.0 °F /  6.7 °C 30.2in /  1022.6hPa Calm     37% 0.000in /  0mm 533.00 W/m2
13:09 72.0 °F /  22.2 °C 43.0 °F /  6.1 °C 30.2in /  1022.6hPa Calm     35% 0.000in /  0mm 422.00 W/m2
13:14 72.0 °F /  22.2 °C 43.0 °F /  6.1 °C 30.2in /  1022.6hPa Calm     36% 0.000in /  0mm 422.00 W/m2
13:19 72.0 °F /  22.2 °C 43.0 °F /  6.1 °C 30.2in /  1022.6hPa Calm     36% 0.000in /  0mm 422.00 W/m2
13:24 71.0 °F /  21.7 °C 44.0 °F /  6.7 °C 30.2in /  1022.6hPa Calm     38% 0.000in /  0mm 422.00 W/m2
13:29 71.0 °F /  21.7 °C 44.0 °F /  6.7 °C 30.2in /  1022.6hPa Calm     39% 0.000in /  0mm 599.00 W/m2
13:34 70.0 °F /  21.1 °C 44.0 °F /  6.7 °C 30.2in /  1022.6hPa Calm     39% 0.000in /  0mm 489.00 W/m2
13:39 70.0 °F /  21.1 °C 44.0 °F /  6.7 °C 30.2in /  1022.6hPa Calm     39% 0.000in /  0mm 320.00 W/m2
13:44 70.0 °F /  21.1 °C 44.0 °F /  6.7 °C 30.2in /  1022.6hPa Calm     40% 0.000in /  0mm 396.00 W/m2
13:49 70.0 °F /  21.1 °C 45.0 °F /  7.2 °C 30.2in /  1022.6hPa Calm     41% 0.000in /  0mm 406.00 W/m2
13:54 69.0 °F /  20.6 °C 45.0 °F /  7.2 °C 30.2in /  1022.6hPa Calm     42% 0.000in /  0mm 452.00 W/m2
13:59 70.0 °F /  21.1 °C 46.0 °F /  7.8 °C 30.2in /  1022.6hPa Calm     42% 0.000in /  0mm 529.00 W/m2
14:04 70.0 °F /  21.1 °C 45.0 °F /  7.2 °C 30.2in /  1022.6hPa Calm     41% 0.000in /  0mm 497.00 W/m2
14:09 71.0 °F /  21.7 °C 45.0 °F /  7.2 °C 30.2in /  1022.6hPa Calm     40% 0.000in /  0mm 475.00 W/m2
14:14 71.0 °F /  21.7 °C 45.0 °F /  7.2 °C 30.2in /  1022.6hPa Calm     40% 0.000in /  0mm 422.00 W/m2
14:19 71.0 °F /  21.7 °C 43.0 °F /  6.1 °C 30.2in /  1022.6hPa Calm     36% 0.000in /  0mm 422.00 W/m2
14:24 71.0 °F /  21.7 °C 44.0 °F /  6.7 °C 30.2in /  1022.6hPa Calm     38% 0.000in /  0mm 357.00 W/m2
14:29 71.0 °F /  21.7 °C 45.0 °F /  7.2 °C 30.2in /  1022.6hPa Calm     40% 0.000in /  0mm 357.00 W/m2
14:33 71.0 °F /  21.7 °C 46.0 °F /  7.8 °C 30.2in /  1022.6hPa Calm     41% 0.000in /  0mm 278.00 W/m2
14:39 71.0 °F /  21.7 °C 44.0 °F /  6.7 °C 30.2in /  1022.6hPa Calm     39% 0.000in /  0mm 302.00 W/m2
14:44 71.0 °F /  21.7 °C 45.0 °F /  7.2 °C 30.2in /  1022.6hPa Calm     39% 0.000in /  0mm 302.00 W/m2
14:49 71.0 °F /  21.7 °C 45.0 °F /  7.2 °C 30.2in /  1022.6hPa Calm     39% 0.000in /  0mm 218.00 W/m2
14:53 70.0 °F /  21.1 °C 45.0 °F /  7.2 °C 30.2in /  1022.6hPa Calm     41% 0.000in /  0mm 220.00 W/m2
14:59 70.0 °F /  21.1 °C 47.0 °F /  8.3 °C 30.2in /  1022.6hPa Calm     44% 0.000in /  0mm 237.00 W/m2
15:04 70.0 °F /  21.1 °C 44.0 °F /  6.7 °C 30.2in /  1022.6hPa Calm     40% 0.000in /  0mm 241.00 W/m2
15:09 70.0 °F /  21.1 °C 44.0 °F /  6.7 °C 30.2in /  1022.6hPa Calm     40% 0.000in /  0mm 213.00 W/m2
15:14 70.0 °F /  21.1 °C 44.0 °F /  6.7 °C 30.2in /  1022.6hPa Calm     40% 0.000in /  0mm 223.00 W/m2
15:19 70.0 °F /  21.1 °C 45.0 °F /  7.2 °C 30.2in /  1022.6hPa Calm     40% 0.000in /  0mm 153.00 W/m2
15:24 70.0 °F /  21.1 °C 45.0 °F /  7.2 °C 30.2in /  1022.6hPa Calm     41% 0.000in /  0mm 160.00 W/m2
15:28 70.0 °F /  21.1 °C 47.0 °F /  8.3 °C 30.2in /  1022.6hPa Calm     44% 0.000in /  0mm 162.00 W/m2
15:34 70.0 °F /  21.1 °C 47.0 °F /  8.3 °C 30.2in /  1022.6hPa Calm     43% 0.000in /  0mm 139.00 W/m2
15:39 70.0 °F /  21.1 °C 49.0 °F /  9.4 °C 30.2in /  1022.6hPa Calm     47% 0.000in /  0mm 118.00 W/m2
15:44 70.0 °F /  21.1 °C 49.0 °F /  9.4 °C 30.2in /  1022.6hPa Calm     47% 0.000in /  0mm 229.00 W/m2
15:49 70.0 °F /  21.1 °C 49.0 °F /  9.4 °C 30.2in /  1022.6hPa Calm     46% 0.000in /  0mm 214.00 W/m2
15:54 71.0 °F /  21.7 °C 46.0 °F /  7.8 °C 30.2in /  1022.6hPa Calm     41% 0.000in /  0mm 220.00 W/m2
15:59 71.0 °F /  21.7 °C 46.0 °F /  7.8 °C 30.2in /  1022.6hPa Calm     41% 0.000in /  0mm 213.00 W/m2
16:04 70.0 °F /  21.1 °C 48.0 °F /  8.9 °C 30.2in /  1022.6hPa Calm     45% 0.000in /  0mm 109.00 W/m2
16:09 70.0 °F /  21.1 °C 49.0 °F /  9.4 °C 30.2in /  1022.6hPa Calm     47% 0.000in /  0mm 109.00 W/m2
16:14 70.0 °F /  21.1 °C 51.0 °F /  10.6 °C 30.2in /  1022.6hPa Calm     51% 0.000in /  0mm 91.00 W/m2
16:19 70.0 °F /  21.1 °C 51.0 °F /  10.6 °C 30.2in /  1022.6hPa Calm     52% 0.000in /  0mm 88.00 W/m2
16:23 69.0 °F /  20.6 °C 51.0 °F /  10.6 °C 30.2in /  1022.6hPa Calm     54% 0.000in /  0mm 90.00 W/m2
16:29 68.0 °F /  20 °C 52.0 °F /  11.1 °C 30.2in /  1022.6hPa Calm     55% 0.000in /  0mm 69.00 W/m2
16:34 68.0 °F /  20 °C 51.0 °F /  10.6 °C 30.2in /  1022.6hPa Calm     57% 0.000in /  0mm 58.00 W/m2
16:39 67.0 °F /  19.4 °C 52.0 °F /  11.1 °C 30.2in /  1022.6hPa Calm     58% 0.000in /  0mm 51.00 W/m2
16:44 67.0 °F /  19.4 °C 52.0 °F /  11.1 °C 30.2in /  1022.6hPa Calm     59% 0.000in /  0mm 47.00 W/m2
16:49 66.0 °F /  18.9 °C 52.0 °F /  11.1 °C 30.2in /  1022.6hPa Calm     60% 0.000in /  0mm 42.00 W/m2
16:54 66.0 °F /  18.9 °C 52.0 °F /  11.1 °C 30.2in /  1022.6hPa Calm     60% 0.000in /  0mm 35.00 W/m2
16:58 65.0 °F /  18.3 °C 51.0 °F /  10.6 °C 30.2in /  1022.6hPa Calm     61% 0.000in /  0mm 30.00 W/m2
17:04 65.0 °F /  18.3 °C 51.0 °F /  10.6 °C 30.2in /  1022.6hPa Calm     61% 0.000in /  0mm 25.00 W/m2
17:09 64.0 °F /  17.8 °C 50.0 °F /  10 °C 30.2in /  1022.6hPa Calm     61% 0.000in /  0mm 18.00 W/m2
17:14 63.0 °F /  17.2 °C 49.0 °F /  9.4 °C 30.2in /  1022.6hPa Calm     61% 0.000in /  0mm 11.00 W/m2
17:19 62.0 °F /  16.7 °C 50.0 °F /  10 °C 30.2in /  1022.6hPa Calm     64% 0.000in /  0mm 7.00 W/m2
17:24 62.0 °F /  16.7 °C 49.0 °F /  9.4 °C 30.1in /  1019.2hPa Calm     64% 0.000in /  0mm 5.00 W/m2
17:29 61.0 °F /  16.1 °C 48.0 °F /  8.9 °C 30.1in /  1019.2hPa Calm     64% 0.000in /  0mm 0.00 W/m2
17:34 60.0 °F /  15.6 °C 48.0 °F /  8.9 °C 30.1in /  1019.2hPa Calm     65% 0.000in /  0mm 0.00 W/m2
17:39 59.0 °F /  15 °C 47.0 °F /  8.3 °C 30.1in /  1019.2hPa Calm     67% 0.000in /  0mm 0.00 W/m2
17:44 58.0 °F /  14.4 °C 47.0 °F /  8.3 °C 30.1in /  1019.2hPa Calm     67% 0.000in /  0mm 0.00 W/m2
17:49 57.0 °F /  13.9 °C 47.0 °F /  8.3 °C 30.1in /  1019.2hPa Calm     69% 0.000in /  0mm 0.00 W/m2
17:53 57.0 °F /  13.9 °C 47.0 °F /  8.3 °C 30.1in /  1019.2hPa Calm     69% 0.000in /  0mm 0.00 W/m2
17:59 56.0 °F /  13.3 °C 47.0 °F /  8.3 °C 30.1in /  1019.2hPa Calm     71% 0.000in /  0mm 0.00 W/m2
18:04 56.0 °F /  13.3 °C 47.0 °F /  8.3 °C 30.1in /  1019.2hPa Calm     71% 0.000in /  0mm 0.00 W/m2
18:09 56.0 °F /  13.3 °C 46.0 °F /  7.8 °C 30.1in /  1019.2hPa Calm     71% 0.000in /  0mm 0.00 W/m2
18:14 55.0 °F /  12.8 °C 46.0 °F /  7.8 °C 30.1in /  1019.2hPa Calm     71% 0.000in /  0mm 0.00 W/m2
18:19 55.0 °F /  12.8 °C 46.0 °F /  7.8 °C 30.1in /  1019.2hPa Calm     72% 0.000in /  0mm 0.00 W/m2
18:24 54.0 °F /  12.2 °C 46.0 °F /  7.8 °C 30.1in /  1019.2hPa Calm     72% 0.000in /  0mm 0.00 W/m2
18:29 54.0 °F /  12.2 °C 45.0 °F /  7.2 °C 30.1in /  1019.2hPa Calm     72% 0.000in /  0mm 0.00 W/m2
18:34 54.0 °F /  12.2 °C 45.0 °F /  7.2 °C 30.1in /  1019.2hPa Calm     73% 0.000in /  0mm 0.00 W/m2
18:39 54.0 °F /  12.2 °C 45.0 °F /  7.2 °C 30.1in /  1019.2hPa Calm     73% 0.000in /  0mm 0.00 W/m2
18:44 54.0 °F /  12.2 °C 45.0 °F /  7.2 °C 30.1in /  1019.2hPa Calm     73% 0.000in /  0mm 0.00 W/m2
18:49 54.0 °F /  12.2 °C 45.0 °F /  7.2 °C 30.1in /  1019.2hPa Calm     73% 0.000in /  0mm 0.00 W/m2
18:54 54.0 °F /  12.2 °C 45.0 °F /  7.2 °C 30.1in /  1019.2hPa Calm     73% 0.000in /  0mm 0.00 W/m2
18:59 54.0 °F /  12.2 °C 45.0 °F /  7.2 °C 30.1in /  1019.2hPa Calm     74% 0.000in /  0mm 0.00 W/m2
19:04 54.0 °F /  12.2 °C 45.0 °F /  7.2 °C 30.1in /  1019.2hPa Calm     74% 0.000in /  0mm 0.00 W/m2
19:09 54.0 °F /  12.2 °C 45.0 °F /  7.2 °C 30.1in /  1019.2hPa Calm     74% 0.000in /  0mm 0.00 W/m2
19:14 53.0 °F /  11.7 °C 45.0 °F /  7.2 °C 30.1in /  1019.2hPa Calm     74% 0.000in /  0mm 0.00 W/m2
19:19 53.0 °F /  11.7 °C 45.0 °F /  7.2 °C 30.1in /  1019.2hPa Calm     74% 0.000in /  0mm 0.00 W/m2
19:23 53.0 °F /  11.7 °C 45.0 °F /  7.2 °C 30.1in /  1019.2hPa Calm     75% 0.000in /  0mm 0.00 W/m2
19:29 53.0 °F /  11.7 °C 45.0 °F /  7.2 °C 30.1in /  1019.2hPa Calm     75% 0.000in /  0mm 0.00 W/m2
19:34 53.0 °F /  11.7 °C 45.0 °F /  7.2 °C 30.1in /  1019.2hPa Calm     75% 0.000in /  0mm 0.00 W/m2
19:39 53.0 °F /  11.7 °C 45.0 °F /  7.2 °C 30.1in /  1019.2hPa Calm     75% 0.000in /  0mm 0.00 W/m2
19:44 53.0 °F /  11.7 °C 45.0 °F /  7.2 °C 30.1in /  1019.2hPa Calm     75% 0.000in /  0mm 0.00 W/m2
19:49 53.0 °F /  11.7 °C 45.0 °F /  7.2 °C 30.1in /  1019.2hPa Calm     74% 0.000in /  0mm 0.00 W/m2
19:54 53.0 °F /  11.7 °C 45.0 °F /  7.2 °C 30.1in /  1019.2hPa Calm     74% 0.000in /  0mm 0.00 W/m2
19:59 53.0 °F /  11.7 °C 45.0 °F /  7.2 °C 30.1in /  1019.2hPa Calm     74% 0.000in /  0mm 0.00 W/m2
20:04 53.0 °F /  11.7 °C 45.0 °F /  7.2 °C 30.1in /  1019.2hPa Calm     74% 0.000in /  0mm 0.00 W/m2
20:09 53.0 °F /  11.7 °C 44.0 °F /  6.7 °C 30.1in /  1019.2hPa Calm     74% 0.000in /  0mm 0.00 W/m2
20:14 53.0 °F /  11.7 °C 44.0 °F /  6.7 °C 30.1in /  1019.2hPa Calm     73% 0.000in /  0mm 0.00 W/m2
20:19 53.0 °F /  11.7 °C 44.0 °F /  6.7 °C 30.1in /  1019.2hPa Calm     72% 0.000in /  0mm 0.00 W/m2
20:24 53.0 °F /  11.7 °C 44.0 °F /  6.7 °C 30.1in /  1019.2hPa Calm     72% 0.000in /  0mm 0.00 W/m2
20:29 53.0 °F /  11.7 °C 44.0 °F /  6.7 °C 30.1in /  1019.2hPa Calm     72% 0.000in /  0mm 0.00 W/m2
20:34 53.0 °F /  11.7 °C 44.0 °F /  6.7 °C 30.1in /  1019.2hPa Calm     72% 0.000in /  0mm 0.00 W/m2
20:39 53.0 °F /  11.7 °C 44.0 °F /  6.7 °C 30.1in /  1019.2hPa Calm     72% 0.000in /  0mm 0.00 W/m2
20:44 52.0 °F /  11.1 °C 44.0 °F /  6.7 °C 30.1in /  1019.2hPa Calm     73% 0.000in /  0mm 0.00 W/m2
20:49 52.0 °F /  11.1 °C 44.0 °F /  6.7 °C 30.1in /  1019.2hPa Calm     74% 0.000in /  0mm 0.00 W/m2
20:53 52.0 °F /  11.1 °C 44.0 °F /  6.7 °C 30.1in /  1019.2hPa Calm     74% 0.000in /  0mm 0.00 W/m2
20:59 52.0 °F /  11.1 °C 44.0 °F /  6.7 °C 30.1in /  1019.2hPa Calm     74% 0.000in /  0mm 0.00 W/m2
21:04 52.0 °F /  11.1 °C 43.0 °F /  6.1 °C 30.1in /  1019.2hPa Calm     72% 0.000in /  0mm 0.00 W/m2
21:09 52.0 °F /  11.1 °C 43.0 °F /  6.1 °C 30.1in /  1019.2hPa Calm     72% 0.000in /  0mm 0.00 W/m2
21:14 52.0 °F /  11.1 °C 43.0 °F /  6.1 °C 30.1in /  1019.2hPa Calm     71% 0.000in /  0mm 0.00 W/m2
21:19 52.0 °F /  11.1 °C 43.0 °F /  6.1 °C 30.1in /  1019.2hPa Calm     72% 0.000in /  0mm 0.00 W/m2
21:24 52.0 °F /  11.1 °C 44.0 °F /  6.7 °C 30.1in /  1019.2hPa Calm     73% 0.000in /  0mm 0.00 W/m2
21:29 52.0 °F /  11.1 °C 44.0 °F /  6.7 °C 30.1in /  1019.2hPa Calm     73% 0.000in /  0mm 0.00 W/m2
21:34 52.0 °F /  11.1 °C 43.0 °F /  6.1 °C 30.1in /  1019.2hPa Calm     73% 0.000in /  0mm 0.00 W/m2
21:39 52.0 °F /  11.1 °C 43.0 °F /  6.1 °C 30.1in /  1019.2hPa Calm     73% 0.000in /  0mm 0.00 W/m2
21:43 51.0 °F /  10.6 °C 43.0 °F /  6.1 °C 30.1in /  1019.2hPa Calm     73% 0.000in /  0mm 0.00 W/m2
21:49 51.0 °F /  10.6 °C 43.0 °F /  6.1 °C 30.1in /  1019.2hPa Calm     73% 0.000in /  0mm 0.00 W/m2
21:54 51.0 °F /  10.6 °C 43.0 °F /  6.1 °C 30.1in /  1019.2hPa Calm     74% 0.000in /  0mm 0.00 W/m2
21:59 51.0 °F /  10.6 °C 43.0 °F /  6.1 °C 30.1in /  1019.2hPa Calm     73% 0.000in /  0mm 0.00 W/m2
22:04 51.0 °F /  10.6 °C 42.0 °F /  5.6 °C 30.1in /  1019.2hPa Calm     73% 0.000in /  0mm 0.00 W/m2
22:09 50.0 °F /  10 °C 42.0 °F /  5.6 °C 30.1in /  1019.2hPa Calm     74% 0.000in /  0mm 0.00 W/m2
22:14 50.0 °F /  10 °C 42.0 °F /  5.6 °C 30.1in /  1019.2hPa Calm     74% 0.000in /  0mm 0.00 W/m2
22:19 50.0 °F /  10 °C 42.0 °F /  5.6 °C 30.1in /  1019.2hPa Calm     74% 0.000in /  0mm 0.00 W/m2
22:23 50.0 °F /  10 °C 42.0 °F /  5.6 °C 30.1in /  1019.2hPa Calm     74% 0.000in /  0mm 0.00 W/m2
22:29 50.0 °F /  10 °C 42.0 °F /  5.6 °C 30.1in /  1019.2hPa Calm     75% 0.000in /  0mm 0.00 W/m2
22:34 50.0 °F /  10 °C 42.0 °F /  5.6 °C 30.1in /  1019.2hPa Calm     75% 0.000in /  0mm 0.00 W/m2
22:39 50.0 °F /  10 °C 42.0 °F /  5.6 °C 30.1in /  1019.2hPa Calm     75% 0.000in /  0mm 0.00 W/m2
22:44 49.0 °F /  9.4 °C 42.0 °F /  5.6 °C 30.2in /  1022.6hPa Calm     75% 0.000in /  0mm 0.00 W/m2
22:49 49.0 °F /  9.4 °C 42.0 °F /  5.6 °C 30.2in /  1022.6hPa Calm     75% 0.000in /  0mm 0.00 W/m2
22:54 49.0 °F /  9.4 °C 42.0 °F /  5.6 °C 30.2in /  1022.6hPa Calm     76% 0.000in /  0mm 0.00 W/m2
22:59 49.0 °F /  9.4 °C 42.0 °F /  5.6 °C 30.2in /  1022.6hPa Calm     75% 0.000in /  0mm 0.00 W/m2
23:04 49.0 °F /  9.4 °C 42.0 °F /  5.6 °C 30.2in /  1022.6hPa Calm     75% 0.000in /  0mm 0.00 W/m2
23:09 49.0 °F /  9.4 °C 41.0 °F /  5 °C 30.2in /  1022.6hPa Calm     74% 0.000in /  0mm 0.00 W/m2
23:14 49.0 °F /  9.4 °C 41.0 °F /  5 °C 30.2in /  1022.6hPa Calm     75% 0.000in /  0mm 0.00 W/m2
23:19 49.0 °F /  9.4 °C 41.0 °F /  5 °C 30.2in /  1022.6hPa Calm     75% 0.000in /  0mm 0.00 W/m2
23:24 49.0 °F /  9.4 °C 41.0 °F /  5 °C 30.2in /  1022.6hPa Calm     75% 0.000in /  0mm 0.00 W/m2
23:29 49.0 °F /  9.4 °C 42.0 °F /  5.6 °C 30.2in /  1022.6hPa Calm     76% 0.000in /  0mm 0.00 W/m2
23:34 49.0 °F /  9.4 °C 42.0 °F /  5.6 °C 30.2in /  1022.6hPa Calm     76% 0.000in /  0mm 0.00 W/m2
23:39 49.0 °F /  9.4 °C 41.0 °F /  5 °C 30.2in /  1022.6hPa Calm     75% 0.000in /  0mm 0.00 W/m2
23:44 49.0 °F /  9.4 °C 41.0 °F /  5 °C 30.2in /  1022.6hPa Calm     75% 0.000in /  0mm 0.00 W/m2
23:48 49.0 °F /  9.4 °C 41.0 °F /  5 °C 30.2in /  1022.6hPa Calm     75% 0.000in /  0mm 0.00 W/m2
El Dorado Weather
Compliments of Weather Underground - 2 mb